TimeBST,TemperatureF,Dew PointF,Humidity,Sea Level PressureIn,VisibilityMPH,Wind Direction,Wind SpeedMPH,Gust SpeedMPH,PrecipitationIn,Events,Conditions,WindDirDegrees,DateUTC
12:20 AM,48.2,44.6,87,30.45,-9999.0,ESE,4.6,-,N/A,,Clear,120,2013-06-02 23:20:00
12:50 AM,49,44,75,30.45,18,ESE,5.8,,,,,120,2013-06-02 23:50:00
12:50 AM,50.0,44.6,82,30.45,-9999.0,ESE,3.5,-,N/A,,Clear,110,2013-06-02 23:50:00
1:20 AM,48.2,44.6,87,30.45,6.2,East,4.6,-,N/A,,Unknown,90,2013-06-03 00:20:00
1:50 AM,51.8,44.6,76,30.45,6.2,ENE,2.3,-,N/A,,Unknown,70,2013-06-03 00:50:00
2:20 AM,50.0,44.6,82,30.45,6.2,NNE,2.3,-,N/A,,Unknown,30,2013-06-03 01:20:00
2:50 AM,48.2,44.6,87,30.48,-9999.0,North,2.3,-,N/A,,Clear,360,2013-06-03 01:50:00
3:20 AM,48.2,44.6,87,30.48,-9999.0,NNE,2.3,-,N/A,,Clear,20,2013-06-03 02:20:00
3:50 AM,48,44,79,30.47,13,NNE,3.5,,,,,20,2013-06-03 02:50:00
3:50 AM,46.4,44.6,93,30.48,-9999.0,North,4.6,-,N/A,,Clear,10,2013-06-03 02:50:00
4:20 AM,46.4,44.6,93,30.48,-9999.0,North,2.3,-,N/A,,Clear,10,2013-06-03 03:20:00
4:50 AM,48.2,44.6,87,30.48,6.2,North,4.6,-,N/A,,Partly Cloudy,360,2013-06-03 03:50:00
5:20 AM,46.4,44.6,93,30.48,6.2,North,4.6,-,N/A,,Mostly Cloudy,360,2013-06-03 04:20:00
5:50 AM,48.2,44.6,87,30.48,6.2,North,3.5,-,N/A,,Partly Cloudy,360,2013-06-03 04:50:00
6:20 AM,48.2,44.6,87,30.48,-9999.0,North,4.6,-,N/A,,Clear,350,2013-06-03 05:20:00
6:50 AM,52,45,70,30.50,12,NNE,3.5,,,,,20,2013-06-03 05:50:00
6:50 AM,50.0,46.4,87,30.48,-9999.0,Variable,3.5,-,N/A,,Clear,0,2013-06-03 05:50:00
7:20 AM,53.6,46.4,77,30.51,-9999.0,NE,4.6,-,N/A,,Clear,50,2013-06-03 06:20:00
7:50 AM,55.4,42.8,63,30.51,-9999.0,ENE,4.6,-,N/A,,Clear,60,2013-06-03 06:50:00
8:20 AM,55.4,42.8,63,30.51,-9999.0,ENE,4.6,-,N/A,,Clear,60,2013-06-03 07:20:00
8:50 AM,57.2,42.8,59,30.51,-9999.0,NE,5.8,-,N/A,,Clear,40,2013-06-03 07:50:00
9:20 AM,57.2,41.0,55,30.48,-9999.0,NE,6.9,-,N/A,,Clear,50,2013-06-03 08:20:00
9:50 AM,59,39,36,30.49,25,NE,6.9,,,,,40,2013-06-03 08:50:00
9:50 AM,59.0,42.8,55,30.48,-9999.0,NE,6.9,-,N/A,,Clear,50,2013-06-03 08:50:00
10:20 AM,60.8,42.8,52,30.48,6.2,ENE,9.2,-,N/A,,Partly Cloudy,60,2013-06-03 09:20:00
10:50 AM,60.8,42.8,52,30.48,6.2,NE,9.2,-,N/A,,Partly Cloudy,40,2013-06-03 09:50:00
11:20 AM,60.8,44.6,55,30.48,6.2,NE,10.4,-,N/A,,Partly Cloudy,40,2013-06-03 10:20:00
11:50 AM,62.6,42.8,48,30.48,6.2,NE,10.4,-,N/A,,Partly Cloudy,40,2013-06-03 10:50:00
12:20 PM,62.6,42.8,48,30.48,6.2,NE,9.2,-,N/A,,Partly Cloudy,40,2013-06-03 11:20:00
12:50 PM,63,38,28,30.48,28,NE,11.5,,,,,50,2013-06-03 11:50:00
12:50 PM,64.4,42.8,45,30.48,-9999.0,ENE,9.2,-,N/A,,Clear,60,2013-06-03 11:50:00
1:20 PM,64.4,42.8,45,30.48,-9999.0,NE,10.4,-,N/A,,Clear,40,2013-06-03 12:20:00
1:50 PM,64.4,42.8,45,30.45,-9999.0,ENE,10.4,-,N/A,,Clear,70,2013-06-03 12:50:00
2:20 PM,66.2,42.8,43,30.45,-9999.0,NE,9.2,-,N/A,,Clear,40,2013-06-03 13:20:00
2:50 PM,66.2,42.8,43,30.45,-9999.0,NE,8.1,-,N/A,,Clear,40,2013-06-03 13:50:00
3:20 PM,66.2,42.8,43,30.45,-9999.0,ENE,15.0,-,N/A,,Clear,70,2013-06-03 14:20:00
3:50 PM,66,42,30,30.45,28,NE,11.5,,,,Scattered Clouds,50,2013-06-03 14:50:00
3:50 PM,66.2,42.8,43,30.45,-9999.0,East,11.5,-,N/A,,Clear,80,2013-06-03 14:50:00
4:20 PM,66.2,42.8,43,30.42,-9999.0,ENE,10.4,-,N/A,,Clear,60,2013-06-03 15:20:00
4:50 PM,64.4,42.8,45,30.42,-9999.0,ENE,11.5,-,N/A,,Clear,60,2013-06-03 15:50:00
5:20 PM,64.4,42.8,45,30.42,-9999.0,NE,11.5,-,N/A,,Clear,40,2013-06-03 16:20:00
5:50 PM,64.4,42.8,45,30.42,-9999.0,ENE,10.4,-,N/A,,Clear,60,2013-06-03 16:50:00
6:20 PM,64.4,42.8,45,30.42,-9999.0,East,12.7,-,N/A,,Clear,80,2013-06-03 17:20:00
6:50 PM,65,42,32,30.41,34,NE,11.5,,,,Scattered Clouds,40,2013-06-03 17:50:00
6:50 PM,64.4,42.8,45,30.42,6.2,ENE,10.4,-,N/A,,Partly Cloudy,60,2013-06-03 17:50:00
7:20 PM,62.6,44.6,52,30.42,-9999.0,ESE,10.4,-,N/A,,Clear,110,2013-06-03 18:20:00
7:50 PM,60.8,46.4,59,30.42,-9999.0,ESE,11.5,-,N/A,,Clear,110,2013-06-03 18:50:00
8:20 PM,59.0,44.6,59,30.42,-9999.0,East,11.5,-,N/A,,Clear,100,2013-06-03 19:20:00
8:50 PM,55.4,44.6,67,30.42,-9999.0,East,9.2,-,N/A,,Clear,100,2013-06-03 19:50:00
9:20 PM,55.4,44.6,67,30.42,-9999.0,East,9.2,-,N/A,,Clear,100,2013-06-03 20:20:00
9:50 PM,53,42,57,30.45,22,East,9.2,,,,,100,2013-06-03 20:50:00
9:50 PM,53.6,44.6,72,30.45,-9999.0,East,8.1,-,N/A,,Clear,100,2013-06-03 20:50:00
10:20 PM,53.6,44.6,72,30.45,-9999.0,ESE,8.1,-,N/A,,Clear,110,2013-06-03 21:20:00
10:50 PM,51.8,42.8,71,30.45,-9999.0,East,6.9,-,N/A,,Clear,90,2013-06-03 21:50:00
11:20 PM,51.8,42.8,71,30.45,-9999.0,ENE,6.9,-,N/A,,Clear,70,2013-06-03 22:20:00
11:50 PM,51.8,42.8,71,30.45,-9999.0,ENE,5.8,-,N/A,,Clear,70,2013-06-03 22:50:00